Location: Voyageurs National Park
(48.5020°N, 92.9292°W)
Time: 21:58:04
(UTC-06:00)

Lacrosse 5 - Pass Details

Date: 19 January 2018
Orbit: 714 x 724 km, 57.0° (Epoch: 19 February)

Event Time Altitude Azimuth Distance (km) Brightness Sun altitude
Exits shadow 06:01:37 11° 219° (SW) 2,148 4.0 -18.4°
Drops below altitude 10° 06:01:54 10° 216° (SW) 2,189 4.1 -18.4°
Sets 06:05:38 0° 188° (S) 3,104 5.2 -17.8°
